Regional Weather Roundup
Issued by NWS Newport/Morehead, NC

Current Version | Previous Version | Graphics & Text | Print | Product List | Glossary On
Versions: 1 2 3 4 5 6 7 8 9 10 11 12 13 14 15 16 17 18 19 20 21 22 23 24 25 26 27 28 29 30 31 32 33 34 35 36 37 38 39 40 41 42 43 44 45 46 47 48 49 50
000
ASUS42 KMHX 171922
RWRMHX
WEATHER ROUNDUP FOR EASTERN NORTH CAROLINA
NATIONAL WEATHER SERVICE NEWPORT/MOREHEAD CITY NC
200 PM EST WED DEC 17 2014

NOTE: "FAIR" INDICATES FEW OR NO CLOUDS BELOW 12,000 FEET
WITH NO SIGNIFICANT WEATHER AND/OR OBSTRUCTIONS TO VISIBILITY

NCZ015>017-031-032-045>047-102-103-172000-
NORTH COAST

CITY           SKY/WX    TMP DP  RH WIND       PRES   REMARKS
EDENTON        SUNNY     60  42  52 W8        29.99F
ELIZABETH CITY SUNNY     62  41  46 W10       29.98F
KITTY HAWK     CLEAR     54  43  66 W6        29.98F
MANTEO         SUNNY     55  42  60 W6        30.00F

$$

NCZ045>047-081-094-103-104-172000-
CENTRAL COAST

CITY           SKY/WX    TMP DP  RH WIND       PRES   REMARKS
FRISCO         SUNNY     55  44  66 W5        30.01F
SWANQUARTER      N/A     57 N/A N/A SW6G13    29.97S

$$

NCZ095-097-098-100-101-172000-
SOUTHERN COAST

CITY           SKY/WX    TMP DP  RH WIND       PRES   REMARKS
BEAUFORT       SUNNY     61  40  45 N5        30.03F
CEDAR ISLAND     N/A     57 N/A N/A NW3       30.06S
JACKSONVILLE   SUNNY     60  39  45 W7G17     30.03F
PINEY ISLAND   NOT AVBL
WILMINGTON     SUNNY     62  39  42 W9        30.04F


$$

NCZ011>013-027>030-043-044-078>080-089-090>093-098-172000-
COASTAL PLAIN

CITY           SKY/WX    TMP DP  RH WIND       PRES   REMARKS
AHOSKIE        SUNNY     57  37  48 CALM      30.00F
CLINTON        SUNNY     60  42  52 NW5       30.04F
ELIZABETHTOWN  MOSUNNY   60  40  47 NW6       30.04F
GOLDSBORO      SUNNY     61  45  55 W6        30.01F
GREENVILLE     SUNNY     61  39  44 NW6       30.03F
HAVELOCK       NOT AVBL
KENANSVILLE    SUNNY     59  39  46 W7        30.04F
KINSTON        SUNNY     61  39  44 W5        30.03F
NEW BERN       SUNNY     62  41  46 W9        30.03F
RICHLANDS      SUNNY     61  37  41 W8        30.04S
ROCKY MOUNT    SUNNY     58  38  47 W8        30.02F
WASHINGTON     SUNNY     59  40  47 W9        30.01F
WHITEVILLE     MOSUNNY   61  39  45 CALM      30.05F

$$

AMZ130-135-150-152-154-156-158-170-250-252-270-ANZ085-086-088-633-658-670-172000-
MARINE OBSERVATIONS

STATION/POSITION TIME  TEMP    WIND        PRES    WAVE   SWELL
                       AIR SEA DIR/SP/G            HT/PER HT/PER
                 (UTC) (F)     (DEG/KT/KT) (MB)    (FT/S) (FT/S)
CHESAPEAKE LIGHT 1900   49     200/  5/  5 1015.7
64 E VA BEACH    1900   51 55  270/ 10/ 12 1014.9    3/ 6   3/ 6
DUCK             1900   53 49  220/  7/  8 1014.5
2 E DUCK         1900      49                N/A     1/11
10 NE DUCK       1900      52                N/A     2/11
OREGON INLET     1900   55 51  310/  6/  8 1015.6
13E OREGON INLT  1900      53                N/A     2/ 8
HATTERAS CG      1900   52 53  280/  5/  5 1016.6
DIAMOND BUOY     1900   54                 1017.0    3/ 8
17 S OCRACOKE    NOT AVBL
CAPE LOOKOUT     1900   57     240/  7/  9 1016.9
BEAUFORT LAB     1900   58 53  200/  5/  6 1015.7
30 SE NEW RIVER  1900   56 61  300/  8/ 10 1017.9    3/ 7   3/ 7
5 SE WRIGHTSVLE  1900   57 55  190/  4/  6 1017.4
225 S CAPE HAT   1756   68 73  330/  8/ 12 1017.1    7/ 8   7/ 8
41 SE CHARLESTON 1900   60 73  250/  2/  4 1018.7    2/ 6   2/ 6

$$


USA.gov is the U.S. government's official web portal to all federal, state and local government web resources and services.